Showing default

3CAT-5/A (TYVAK-0161), 46292

Orbit data source: Space-Track

3CAT-5/A (TYVAK-0161), 46292 is a payload satellite owned by UPC (ES) in SSO that was launched on Thu, 03 Sep 2020 UTC via a VEGA launch vehicle from the French Guiana (FRGUI). Payload-class satellites include a variety of spacecraft equipped with specific instruments for various scientific and technological missions. These include communications satellites like Starlink; space stations such as the ISS; scientific satellites like the Hubble; Earth observation satellites from companies like Planet Labs, Umbra, and HawkEye 360; GPS; miniature CubeSats for education and research; and military/defense satellites.

Loading next visibility...
Identifier
46292, 2020-061W
Orbit
SSO
Country
Flag of ESES / SPN
Related business
Manufacturer
UPC
Mission
Non-operational Amateur Technology
Bus & Motor
CUBESAT 6U, Unknown motor
Mass
~10 kg wet, ~10 kg dry
Launch date (UTC)
2020-09-03 (6 years ago)
Launch vehicle
VEGA
Launch site
French Guiana (FRGUI)
Object type
Payload
Rocket body
Debris
Shape & HBR
Box, 0.1 m
Radar Cross Section
0.080 m², Medium (>0.1 m² and < 1m²)

Expand to show TLE details & history
Last TLE update: 9 hours ago

TLE from 9 hours ago
0 3CAT-5/A (TYVAK-0161)
1 46292U 20061W   26237.89960040  .00015672  00000-0  30038-3 0  9996
2 46292  97.2343 300.7851 0001564 152.9540 207.1792 15.48099793331807
Epoch: 2026-08-25T21:35Z
TLE epoch observation values (Epoch: 2026-08-25T21:35:25.474Z)
Latitude
-0.00008°
Longitude
2.76864°
Altitude
426.365 km
Speed
7.655 km/s
True Right ascension
20h 03m 08s
True Declination
0° 00' 00"
Sunlit
Object was in full shadow at epoch
Visualization orbit readout
Latitude
Unknown
Longitude
Unknown
Altitude
Unknown
Speed
Unknown
Apparent Right ascension
Unknown
Apparent Declination
Unknown
Sunlit
N/A
Visualization observer readout
Local Sidereal Time
21:32:19
Azimuth
Unknown
Elevation
Unknown
Doppler factor
Unknown
Orbital elements
Apogee altitude
420.269 km
Perigee altitude
418.143 km
Semi-major axis
6,797.343 km
Eccentricity
0.00016
Inclination
97.2343°
RAAN
300.7851°
Arg. of periapsis
152.954°
True anomaly
207.17102°
Mean anomaly
207.1792°
Eccentric anomaly
207.17511°
Mean motion
3.87288 °/min
Orbital period
92.95 mins
BSTAR
0.00030038
Loading maneuver chart data...
Computing Atmospheric mass density...

Documentation

Showing up to 5 results
|